SAT245 LPFL-LPPD

Flight info

Callsign SAT245
Flight time 0h 54m
Altitude 23000
Route YARMA DCT SOLGI DCT SOMUL
Aircraft DH8D/M-SDE2E3FGRY/H

Departure

Time 2026-04-23 15:56
Airport Flores Airport (LPFL)

Arrival

Time 2026-04-23 16:51
Airport João Paulo II Airport (LPPD)
Time Latitude Longitude Altitude Speed Heading
2026-04-23 15:36 39.45853 -31.13099 115 ft 0 kts 199°
2026-04-23 15:50 39.45853 -31.13100 115 ft 0 kts 199°
2026-04-23 15:50 39.45837 -31.13109 116 ft 5 kts 212°
2026-04-23 15:50 39.45811 -31.13171 117 ft 9 kts 250°
2026-04-23 15:50 39.45773 -31.13201 119 ft 6 kts 181°
2026-04-23 15:51 39.45703 -31.13183 120 ft 14 kts 165°
2026-04-23 15:51 39.45586 -31.13141 122 ft 20 kts 172°
2026-04-23 15:51 39.45422 -31.13103 127 ft 30 kts 169°
2026-04-23 15:51 39.45176 -31.13037 131 ft 23 kts 168°
2026-04-23 15:52 39.45026 -31.12994 129 ft 16 kts 167°
2026-04-23 15:52 39.44938 -31.12993 131 ft 9 kts 157°
2026-04-23 15:52 39.44968 -31.12979 129 ft 0 kts 344°
2026-04-23 15:55 39.44970 -31.12980 129 ft 8 kts 343°
2026-04-23 15:56 39.45385 -31.13095 128 ft 111 kts 348°
2026-04-23 15:56 39.46337 -31.13308 351 ft 156 kts 349°
2026-04-23 15:56 39.47504 -31.13429 944 ft 181 kts 358°
2026-04-23 15:56 39.48676 -31.12755 1750 ft 202 kts 43°
2026-04-23 15:57 39.49110 -31.11033 2341 ft 212 kts 97°
2026-04-23 15:57 39.48548 -31.09289 2964 ft 215 kts 122°
2026-04-23 15:57 39.47799 -31.07637 3695 ft 216 kts 121°
2026-04-23 15:57 39.47065 -31.05941 4429 ft 217 kts 121°
2026-04-23 15:58 39.46354 -31.04246 5151 ft 219 kts 120°
2026-04-23 15:58 39.45643 -31.02498 5880 ft 221 kts 120°
2026-04-23 15:58 39.44938 -31.00731 6635 ft 222 kts 120°
2026-04-23 15:58 39.44230 -30.98925 7266 ft 228 kts 118°
2026-04-23 15:59 39.43525 -30.97105 7926 ft 232 kts 117°
2026-04-23 15:59 39.42801 -30.95222 8582 ft 236 kts 117°
2026-04-23 15:59 39.42074 -30.93287 9192 ft 242 kts 114°
2026-04-23 15:59 39.41484 -30.91262 9830 ft 245 kts 108°
2026-04-23 16:00 39.40939 -30.89167 10471 ft 249 kts 107°
2026-04-23 16:00 39.40391 -30.87056 11101 ft 252 kts 107°
2026-04-23 16:00 39.39826 -30.84875 11678 ft 256 kts 107°
2026-04-23 16:00 39.39265 -30.82714 12291 ft 258 kts 107°
2026-04-23 16:01 39.38690 -30.80500 12831 ft 262 kts 107°
2026-04-23 16:01 39.38107 -30.78257 13376 ft 266 kts 107°
2026-04-23 16:01 39.37513 -30.75973 13949 ft 267 kts 106°
2026-04-23 16:01 39.36918 -30.73693 14464 ft 271 kts 107°
2026-04-23 16:02 39.36317 -30.71389 15006 ft 272 kts 106°
2026-04-23 16:02 39.35712 -30.69068 15506 ft 275 kts 107°
2026-04-23 16:02 39.35106 -30.66752 15989 ft 277 kts 106°
2026-04-23 16:02 39.34485 -30.64379 16468 ft 279 kts 107°
2026-04-23 16:03 39.33854 -30.61965 16912 ft 283 kts 107°
2026-04-23 16:03 39.33228 -30.59580 17361 ft 285 kts 107°
2026-04-23 16:03 39.32590 -30.57149 17822 ft 286 kts 107°
2026-04-23 16:03 39.31952 -30.54717 18226 ft 288 kts 107°
2026-04-23 16:04 39.31295 -30.52220 18624 ft 291 kts 107°
2026-04-23 16:04 39.30640 -30.49733 19033 ft 293 kts 107°
2026-04-23 16:04 39.29975 -30.47208 19355 ft 298 kts 107°
2026-04-23 16:04 39.29312 -30.44692 19751 ft 299 kts 106°
2026-04-23 16:05 39.28856 -30.42963 19969 ft 303 kts 106°
2026-04-23 16:05 39.27949 -30.39531 20449 ft 305 kts 107°
2026-04-23 16:05 39.27256 -30.36915 20746 ft 309 kts 106°
2026-04-23 16:05 39.26904 -30.35569 20594 ft 295 kts 110°
2026-04-23 16:06 39.26273 -30.33170 21354 ft 277 kts 111°
2026-04-23 16:06 39.26026 -30.32238 21444 ft 277 kts 111°
2026-04-23 16:06 39.25485 -30.30201 21955 ft 288 kts 107°
2026-04-23 16:06 39.24825 -30.27723 22018 ft 300 kts 107°
2026-04-23 16:07 39.24129 -30.25111 22096 ft 311 kts 107°
2026-04-23 16:07 39.23417 -30.22441 22255 ft 317 kts 107°
2026-04-23 16:07 39.22691 -30.19720 22478 ft 321 kts 107°
2026-04-23 16:07 39.21965 -30.16999 22706 ft 324 kts 107°
2026-04-23 16:08 39.21223 -30.14222 22896 ft 329 kts 107°
2026-04-23 16:08 39.20469 -30.11400 22967 ft 339 kts 107°
2026-04-23 16:08 39.19694 -30.08502 22986 ft 350 kts 107°
2026-04-23 16:08 39.18884 -30.05477 22992 ft 362 kts 107°
2026-04-23 16:09 39.18050 -30.02368 22988 ft 372 kts 107°
2026-04-23 16:09 39.17198 -29.99199 22979 ft 381 kts 107°
2026-04-23 16:09 39.16319 -29.95934 22975 ft 388 kts 107°
2026-04-23 16:09 39.15420 -29.92597 22969 ft 393 kts 107°
2026-04-23 16:10 39.14520 -29.89263 22978 ft 398 kts 107°
2026-04-23 16:10 39.13611 -29.85898 22985 ft 401 kts 107°
2026-04-23 16:10 39.12698 -29.82525 22991 ft 404 kts 107°
2026-04-23 16:10 39.11761 -29.79068 22986 ft 407 kts 107°
2026-04-23 16:11 39.10840 -29.75673 22977 ft 409 kts 107°
2026-04-23 16:11 39.09900 -29.72212 22968 ft 405 kts 107°
2026-04-23 16:11 39.08975 -29.68811 22964 ft 400 kts 107°
2026-04-23 16:11 39.08057 -29.65433 22970 ft 395 kts 107°
2026-04-23 16:12 39.07149 -29.62104 22978 ft 391 kts 107°
2026-04-23 16:12 39.06260 -29.58845 22982 ft 388 kts 107°
2026-04-23 16:12 39.05370 -29.55588 22976 ft 385 kts 107°
2026-04-23 16:12 39.04480 -29.52330 22836 ft 388 kts 107°
2026-04-23 16:13 39.03574 -29.49024 22805 ft 387 kts 107°
2026-04-23 16:13 39.01797 -29.42552 22794 ft 384 kts 107°
2026-04-23 16:13 39.00911 -29.39329 22802 ft 382 kts 107°
2026-04-23 16:14 39.00024 -29.36110 22794 ft 381 kts 107°
2026-04-23 16:14 38.99147 -29.32928 22796 ft 380 kts 108°
2026-04-23 16:14 38.98259 -29.29714 22799 ft 378 kts 108°
2026-04-23 16:14 38.97375 -29.26516 22792 ft 377 kts 108°
2026-04-23 16:15 38.96500 -29.23355 22787 ft 376 kts 108°
2026-04-23 16:15 38.95632 -29.20225 22791 ft 375 kts 108°
2026-04-23 16:15 38.94758 -29.17075 22789 ft 375 kts 108°
2026-04-23 16:15 38.93876 -29.13900 22786 ft 375 kts 107°
2026-04-23 16:16 38.93001 -29.10754 22788 ft 374 kts 108°
2026-04-23 16:16 38.92131 -29.07632 22793 ft 373 kts 107°
2026-04-23 16:16 38.91259 -29.04503 22798 ft 373 kts 108°
2026-04-23 16:16 38.90389 -29.01389 22794 ft 373 kts 108°
2026-04-23 16:17 38.89513 -28.98255 22789 ft 372 kts 108°
2026-04-23 16:17 38.88635 -28.95117 22796 ft 371 kts 108°
2026-04-23 16:17 38.87768 -28.92024 22802 ft 370 kts 107°
2026-04-23 16:17 38.86897 -28.88919 22809 ft 370 kts 108°
2026-04-23 16:18 38.86025 -28.85814 22807 ft 370 kts 108°
2026-04-23 16:18 38.85162 -28.82747 22813 ft 369 kts 107°
2026-04-23 16:18 38.84283 -28.79625 22812 ft 369 kts 107°
2026-04-23 16:18 38.83411 -28.76531 22810 ft 369 kts 108°
2026-04-23 16:19 38.82548 -28.73472 22801 ft 369 kts 108°
2026-04-23 16:19 38.81667 -28.70355 22812 ft 369 kts 108°
2026-04-23 16:19 38.80794 -28.67268 22797 ft 370 kts 108°
2026-04-23 16:19 38.79913 -28.64157 22807 ft 369 kts 108°
2026-04-23 16:20 38.79042 -28.61084 22812 ft 370 kts 108°
2026-04-23 16:20 38.78160 -28.57980 22812 ft 370 kts 108°
2026-04-23 16:20 38.77288 -28.54911 22816 ft 370 kts 108°
2026-04-23 16:20 38.76400 -28.51788 22810 ft 370 kts 107°
2026-04-23 16:21 38.75523 -28.48711 22815 ft 369 kts 108°
2026-04-23 16:21 38.74634 -28.45594 22818 ft 369 kts 107°
2026-04-23 16:21 38.73754 -28.42512 22809 ft 370 kts 108°
2026-04-23 16:21 38.72868 -28.39413 22809 ft 370 kts 108°
2026-04-23 16:22 38.71991 -28.36348 22811 ft 370 kts 107°
2026-04-23 16:22 38.71101 -28.33242 22812 ft 370 kts 108°
2026-04-23 16:22 38.70224 -28.30185 22811 ft 369 kts 108°
2026-04-23 16:22 38.69337 -28.27097 22814 ft 369 kts 108°
2026-04-23 16:23 38.68455 -28.24031 22811 ft 369 kts 108°
2026-04-23 16:23 38.67562 -28.20929 22819 ft 368 kts 108°
2026-04-23 16:23 38.66683 -28.17878 22819 ft 368 kts 108°
2026-04-23 16:23 38.65796 -28.14804 22819 ft 368 kts 108°
2026-04-23 16:24 38.64902 -28.11710 22821 ft 368 kts 108°
2026-04-23 16:24 38.64024 -28.08673 22818 ft 368 kts 108°
2026-04-23 16:24 38.63134 -28.05599 22813 ft 368 kts 108°
2026-04-23 16:24 38.62083 -28.02580 22803 ft 369 kts 121°
2026-04-23 16:25 38.60646 -27.99880 22811 ft 369 kts 126°
2026-04-23 16:25 38.59146 -27.97216 22812 ft 369 kts 126°
2026-04-23 16:25 38.57655 -27.94567 22811 ft 369 kts 126°
2026-04-23 16:25 38.56148 -27.91887 22813 ft 369 kts 127°
2026-04-23 16:26 38.54662 -27.89241 22818 ft 369 kts 126°
2026-04-23 16:26 38.53169 -27.86581 22816 ft 369 kts 126°
2026-04-23 16:26 38.51679 -27.83926 22819 ft 369 kts 126°
2026-04-23 16:26 38.50191 -27.81272 22825 ft 369 kts 126°
2026-04-23 16:27 38.48682 -27.78584 22813 ft 370 kts 126°
2026-04-23 16:27 38.47181 -27.75909 22811 ft 370 kts 126°
2026-04-23 16:27 38.45697 -27.73268 22813 ft 370 kts 126°
2026-04-23 16:27 38.44196 -27.70595 22812 ft 370 kts 126°
2026-04-23 16:28 38.42691 -27.67918 22813 ft 371 kts 126°
2026-04-23 16:28 38.41207 -27.65280 22813 ft 370 kts 126°
2026-04-23 16:28 38.39700 -27.62602 22817 ft 371 kts 126°
2026-04-23 16:28 38.38192 -27.59928 22817 ft 371 kts 126°
2026-04-23 16:29 38.36698 -27.57278 22823 ft 371 kts 126°
2026-04-23 16:29 38.35178 -27.54584 22827 ft 371 kts 126°
2026-04-23 16:29 38.33661 -27.51898 22825 ft 371 kts 126°
2026-04-23 16:29 38.32164 -27.49248 22824 ft 372 kts 126°
2026-04-23 16:30 38.30653 -27.46576 22825 ft 372 kts 126°
2026-04-23 16:30 38.29149 -27.43920 22829 ft 372 kts 126°
2026-04-23 16:30 38.27620 -27.41221 22832 ft 372 kts 126°
2026-04-23 16:30 38.26106 -27.38551 22828 ft 373 kts 126°
2026-04-23 16:31 38.24605 -27.35906 22828 ft 373 kts 126°
2026-04-23 16:31 38.23081 -27.33220 22831 ft 372 kts 126°
2026-04-23 16:31 38.21806 -27.30354 22835 ft 370 kts 110°
2026-04-23 16:31 38.20912 -27.27285 22831 ft 369 kts 108°
2026-04-23 16:32 38.20052 -27.24213 22830 ft 369 kts 107°
2026-04-23 16:32 38.19196 -27.21160 22832 ft 370 kts 107°
2026-04-23 16:32 38.18336 -27.18106 22838 ft 370 kts 107°
2026-04-23 16:32 38.17463 -27.15017 22837 ft 370 kts 107°
2026-04-23 16:33 38.16597 -27.11961 22833 ft 370 kts 107°
2026-04-23 16:33 38.15717 -27.08864 22838 ft 370 kts 107°
2026-04-23 16:33 38.14843 -27.05794 22837 ft 370 kts 107°
2026-04-23 16:33 38.13971 -27.02737 22842 ft 370 kts 107°
2026-04-23 16:34 38.13083 -26.99632 22842 ft 371 kts 108°
2026-04-23 16:34 38.12203 -26.96559 22838 ft 371 kts 108°
2026-04-23 16:34 38.11329 -26.93512 22842 ft 371 kts 108°
2026-04-23 16:34 38.10442 -26.90421 22835 ft 371 kts 107°
2026-04-23 16:35 38.09558 -26.87346 22834 ft 371 kts 107°
2026-04-23 16:35 38.08671 -26.84267 22837 ft 371 kts 107°
2026-04-23 16:35 38.08558 -26.83875 22837 ft 371 kts 107°
2026-04-23 16:35 38.08251 -26.82811 22836 ft 371 kts 107°
2026-04-23 16:36 38.07354 -26.79699 22844 ft 371 kts 107°
2026-04-23 16:36 38.06472 -26.76645 22636 ft 377 kts 107°
2026-04-23 16:36 38.05571 -26.73519 22000 ft 378 kts 107°
2026-04-23 16:36 38.04674 -26.70414 21470 ft 372 kts 107°
2026-04-23 16:37 38.03786 -26.67351 20969 ft 365 kts 107°
2026-04-23 16:37 38.02927 -26.64389 20493 ft 358 kts 108°
2026-04-23 16:37 38.02080 -26.61470 20017 ft 352 kts 108°
2026-04-23 16:37 38.01243 -26.58584 19548 ft 345 kts 107°
2026-04-23 16:38 38.00421 -26.55745 19090 ft 338 kts 108°
2026-04-23 16:38 37.99721 -26.53336 18697 ft 332 kts 107°
2026-04-23 16:38 37.98925 -26.50596 18252 ft 326 kts 108°
2026-04-23 16:38 37.98146 -26.47920 17818 ft 319 kts 108°
2026-04-23 16:39 37.97384 -26.45309 17395 ft 312 kts 108°
2026-04-23 16:39 37.96645 -26.42776 16985 ft 306 kts 108°
2026-04-23 16:39 37.95915 -26.40278 16582 ft 300 kts 109°
2026-04-23 16:39 37.95192 -26.37802 16178 ft 295 kts 108°
2026-04-23 16:40 37.94492 -26.35412 15790 ft 289 kts 109°
2026-04-23 16:40 37.93804 -26.33063 15403 ft 283 kts 109°
2026-04-23 16:40 37.93129 -26.30763 15025 ft 276 kts 110°
2026-04-23 16:40 37.92471 -26.28520 14660 ft 269 kts 110°
2026-04-23 16:41 37.91830 -26.26336 14301 ft 262 kts 110°
2026-04-23 16:41 37.91196 -26.24207 14019 ft 250 kts 111°
2026-04-23 16:41 37.90581 -26.22211 13720 ft 239 kts 111°
2026-04-23 16:41 37.89985 -26.20286 13413 ft 229 kts 111°
2026-04-23 16:42 37.89409 -26.18435 13133 ft 227 kts 112°
2026-04-23 16:42 37.88821 -26.16557 12833 ft 233 kts 112°
2026-04-23 16:42 37.88219 -26.14629 12519 ft 240 kts 112°
2026-04-23 16:42 37.87594 -26.12626 12193 ft 247 kts 112°
2026-04-23 16:43 37.86959 -26.10587 11863 ft 254 kts 112°
2026-04-23 16:43 37.86307 -26.08493 11514 ft 261 kts 112°
2026-04-23 16:43 37.85634 -26.06332 11157 ft 268 kts 112°
2026-04-23 16:43 37.84949 -26.04135 10791 ft 274 kts 113°
2026-04-23 16:44 37.84249 -26.01886 10422 ft 278 kts 113°
2026-04-23 16:44 37.83533 -25.99589 10038 ft 282 kts 113°
2026-04-23 16:44 37.82805 -25.97249 9651 ft 285 kts 113°
2026-04-23 16:44 37.81977 -25.95012 9225 ft 282 kts 120°
2026-04-23 16:45 37.81068 -25.92832 8725 ft 278 kts 119°
2026-04-23 16:45 37.80197 -25.90657 8223 ft 275 kts 119°
2026-04-23 16:45 37.79343 -25.88523 7721 ft 271 kts 119°
2026-04-23 16:45 37.78510 -25.86432 7311 ft 264 kts 119°
2026-04-23 16:46 37.77703 -25.84396 6932 ft 257 kts 119°
2026-04-23 16:46 37.76931 -25.82423 6783 ft 239 kts 118°
2026-04-23 16:46 37.76231 -25.80612 6613 ft 227 kts 119°
2026-04-23 16:46 37.75534 -25.78805 6112 ft 231 kts 118°
2026-04-23 16:47 37.74835 -25.76998 5690 ft 232 kts 118°
2026-04-23 16:47 37.74118 -25.75155 5262 ft 232 kts 119°
2026-04-23 16:47 37.73405 -25.73322 4838 ft 232 kts 118°
2026-04-23 16:47 37.72701 -25.71510 4415 ft 228 kts 118°
2026-04-23 16:48 37.72031 -25.69773 3993 ft 216 kts 118°
2026-04-23 16:48 37.71408 -25.68082 3527 ft 211 kts 117°
2026-04-23 16:48 37.70799 -25.66426 3154 ft 201 kts 118°
2026-04-23 16:48 37.70454 -25.64774 2715 ft 197 kts 81°
2026-04-23 16:49 37.70870 -25.63813 2425 ft 182 kts 38°
2026-04-23 16:49 37.72266 -25.63483 1765 ft 151 kts 328°
2026-04-23 16:49 37.72825 -25.64459 1211 ft 138 kts 279°
2026-04-23 16:49 37.72977 -25.65604 826 ft 133 kts 278°
2026-04-23 16:50 37.73241 -25.66718 457 ft 128 kts 288°
2026-04-23 16:50 37.73561 -25.67719 303 ft 117 kts 286°
2026-04-23 16:50 37.73850 -25.68666 174 ft 113 kts 289°
2026-04-23 16:50 37.74091 -25.69480 203 ft 86 kts 292°
2026-04-23 16:51 37.74278 -25.70033 232 ft 43 kts 292°
2026-04-23 16:51 37.74401 -25.70276 249 ft 25 kts 321°
2026-04-23 16:51 37.74501 -25.70375 260 ft 21 kts 321°
2026-04-23 16:51 37.74611 -25.70514 271 ft 30 kts 304°
2026-04-23 16:52 37.74674 -25.70682 277 ft 0 kts 283°
2026-04-23 16:54 37.74680 -25.70711 277 ft 13 kts 282°
2026-04-23 16:54 37.74711 -25.70851 276 ft 17 kts 294°
2026-04-23 16:54 37.74750 -25.70956 275 ft 7 kts 317°
2026-04-23 16:55 37.74766 -25.70963 277 ft 0 kts
2026-04-23 16:55 37.74788 -25.70983 278 ft 10 kts 308°
2026-04-23 16:55 37.74813 -25.71097 275 ft 10 kts 292°